Location: Napoli
(40.8639°N, 14.2562°E)
Time: 15:11:48
(UTC+02:00)

ISS - Visible Passes

Search period start: 25 May 2020 00:00
Search period end: 04 June 2020 00:00
Orbit: 417 x 420 km, 51.6° (Epoch: 25 May)

Date Brightness Start Highest point End Pass type
(mag) Time Alt. Az. Time Alt. Az. Time Alt. Az.
25 May -0.6 00:47:30 10° NW 00:47:37 11° NW 00:47:37 11° NW visible
25 May -1.0 22:23:30 10° NNW 22:25:41 16° NNE 22:27:53 10° NE visible
25 May -1.5 23:59:46 10° NW 00:01:21 24° NW 00:01:21 24° NW visible
26 May -0.9 21:35:44 10° NNW 21:37:38 14° N 21:39:33 10° NE visible
26 May -2.3 23:12:05 10° NW 23:15:06 34° NNE 23:15:06 34° NNE visible
27 May -1.8 22:24:24 10° NW 22:27:15 24° NNE 22:28:53 17° ENE visible
28 May -1.1 00:00:55 10° WNW 00:01:48 17° WNW 00:01:48 17° WNW visible
28 May -1.4 21:36:44 10° NNW 21:39:15 19° NNE 21:41:46 10° ENE visible
28 May -2.8 23:13:03 10° NW 23:15:35 47° NW 23:15:35 47° NW visible
29 May -3.2 22:25:17 10° NW 22:28:35 50° NNE 22:29:25 39° ENE visible
30 May -2.4 21:37:33 10° NW 21:40:40 33° NNE 21:43:15 13° E visible
30 May -1.9 23:14:23 10° WNW 23:16:11 24° W 23:16:11 24° W visible
31 May -3.6 22:26:21 10° WNW 22:29:40 57° SW 22:30:04 52° S visible
01 Jun -3.8 21:38:27 10° NW 21:41:50 82° NE 21:43:59 21° ESE visible
02 Jun -1.9 22:28:00 10° W 22:30:28 19° SW 22:30:52 19° SW visible
03 Jun -2.6 21:39:40 10° WNW 21:42:44 33° SW 21:44:53 16° SSE visible
